Date String (YYYY-MM-DD hh:mm:ss) UTC,Instrument flags,Ambient pressure (hPa),Sample flow (lpm),Bypass flow (lpm),Sample temperature (°C),Ambient temperature (°C),ASC tube jacket temperature (°C),LED temperature (°C),Box temperature (°C),Sample RH (%),Span deviation,Mass concentration (μg/m³),Mass concentration (μg/m³),Mass concentration (μg/m³)
DateTimeUTC,F1_M11,P_M11,Q1_M11,Q2_M11,T1_M11,T2_M11,T3_M11,T4_M11,T5_M11,U1_M11,ZSPAN_M11,X0_M11,X2_M11,X1_M11
2023-01-28 21:00:00,,0817.7,4.98,0.00,22.3,20.7,00.0,31.2,24.0,13.9,0000.0,0010.14,0007.11,0006.80
2023-01-28 21:01:00,,0817.7,5.08,0.00,22.3,20.7,00.0,31.2,24.0,14.0,0000.0,0010.20,0007.12,0006.79
2023-01-28 21:02:00,,0817.7,4.98,0.00,22.2,20.7,00.0,31.2,24.0,14.0,0000.0,0010.26,0007.16,0006.80
2023-01-28 21:03:00,,0817.7,5.02,0.00,22.2,20.7,00.0,31.2,24.0,14.0,0000.0,0009.84,0007.17,0006.81
2023-01-28 21:04:00,,0817.7,4.95,0.00,22.2,20.7,00.0,31.1,24.0,14.0,0000.0,0009.80,0007.17,0006.80
2023-01-28 21:05:00,,0817.7,5.05,0.00,22.2,20.7,00.0,31.1,24.0,14.0,0000.0,0009.89,0007.19,0006.80
2023-01-28 21:06:00,,0817.7,4.96,0.00,22.3,21.5,00.0,31.1,24.2,13.9,0000.0,0009.75,0007.17,0006.79
2023-01-28 21:07:00,,0817.7,5.02,0.00,22.4,22.5,00.0,31.1,24.4,13.8,0000.0,0009.77,0007.17,0006.80
2023-01-28 21:08:00,,0817.7,4.98,0.00,22.5,22.5,00.0,31.1,24.5,13.7,0000.0,0009.89,0007.18,0006.79
2023-01-28 21:09:00,,0817.8,5.00,0.00,22.5,22.1,00.0,31.2,24.4,13.7,0000.0,0009.92,0007.19,0006.80
2023-01-28 21:10:00,,0817.7,5.02,0.00,22.5,21.8,00.0,31.2,24.3,13.7,0000.0,0009.94,0007.21,0006.81
2023-01-28 21:11:00,,0817.7,5.01,0.00,22.5,21.6,00.0,31.2,24.3,13.7,0000.0,0009.98,0007.23,0006.80
2023-01-28 21:12:00,,0817.7,5.01,0.00,22.5,21.4,00.0,31.2,24.2,13.8,0000.0,0009.89,0007.22,0006.81
2023-01-28 21:13:00,,0817.7,5.01,0.00,22.4,21.3,00.0,31.3,24.2,14.0,0000.0,0009.91,0007.22,0006.81
2023-01-28 21:14:00,,0817.7,4.98,0.00,22.4,21.2,00.0,31.3,24.2,13.9,0000.0,0009.98,0007.23,0006.82
2023-01-28 21:15:00,,0817.7,5.00,0.00,22.4,21.1,00.0,31.3,24.2,14.0,0000.0,0010.05,0007.25,0006.83
2023-01-28 21:16:00,,0817.8,4.98,0.00,22.4,21.1,00.0,31.3,24.2,13.9,0000.0,0009.90,0007.22,0006.83
2023-01-28 21:17:00,,0817.7,5.01,0.00,22.4,21.0,00.0,31.3,24.2,13.9,0000.0,0009.91,0007.24,0006.84
2023-01-28 21:18:00,,0817.7,4.99,0.00,22.4,21.0,00.0,31.3,24.1,13.8,0000.0,0010.03,0007.28,0006.86
2023-01-28 21:19:00,,0817.6,4.99,0.00,22.4,20.9,00.0,31.3,24.1,13.9,0000.0,0009.98,0007.29,0006.87
2023-01-28 21:20:00,,0817.6,4.98,0.00,22.4,20.9,00.0,31.3,24.1,14.3,0000.0,0009.99,0007.25,0006.82
2023-01-28 21:21:00,,0817.7,5.02,0.00,22.4,20.9,00.0,31.2,24.1,14.6,0000.0,0009.96,0007.18,0006.75
2023-01-28 21:22:00,,0817.7,5.00,0.00,22.4,20.8,00.0,31.2,24.1,14.8,0000.0,0009.84,0007.08,0006.68
2023-01-28 21:23:00,,0817.7,5.01,0.00,22.3,20.8,00.0,31.2,24.1,14.9,0000.0,0009.77,0007.01,0006.61
2023-01-28 21:24:00,,0817.6,5.00,0.00,22.3,20.8,00.0,31.2,24.1,14.9,0000.0,0009.61,0006.91,0006.52
2023-01-28 21:25:00,,0817.6,5.03,0.00,22.3,20.8,00.0,31.2,24.1,14.9,0000.0,0009.49,0006.80,0006.43
2023-01-28 21:26:00,,0817.6,5.00,0.00,22.3,20.8,00.0,31.2,24.0,14.9,0000.0,0009.34,0006.70,0006.36
2023-01-28 21:27:00,,0817.7,5.01,0.00,22.3,20.7,00.0,31.2,24.0,14.8,0000.0,0009.27,0006.63,0006.28
2023-01-28 21:28:00,,0817.8,5.03,0.00,22.3,20.7,00.0,31.2,24.0,14.9,0000.0,0009.19,0006.53,0006.18
2023-01-28 21:29:00,,0817.8,4.97,0.00,22.3,20.8,00.0,31.2,24.0,14.9,0000.0,0008.97,0006.41,0006.09
2023-01-28 21:30:00,,0817.8,5.01,0.00,22.3,21.4,00.0,31.1,24.2,14.9,0000.0,0008.86,0006.34,0006.01
2023-01-28 21:31:00,,0817.7,4.99,0.00,22.4,22.3,00.0,31.1,24.4,14.9,0000.0,0008.76,0006.31,0005.99
2023-01-28 21:32:00,,0817.7,4.99,0.00,22.5,22.3,00.0,31.2,24.5,14.8,0000.0,0008.76,0006.30,0005.99
2023-01-28 21:33:00,,0817.7,5.01,0.00,22.5,22.0,00.0,31.2,24.4,14.8,0000.0,0009.34,0006.33,0006.01
2023-01-28 21:34:00,,0817.7,4.97,0.00,22.5,21.7,00.0,31.2,24.3,14.7,0000.0,0009.37,0006.35,0006.02
2023-01-28 21:35:00,,0817.8,5.01,0.00,22.5,21.4,00.0,31.3,24.3,14.7,0000.0,0009.48,0006.36,0006.04
2023-01-28 21:36:00,,0817.7,5.02,0.00,22.4,21.2,00.0,31.3,24.2,14.7,0000.0,0010.10,0006.39,0006.05
2023-01-28 21:37:00,,0817.6,4.98,0.00,22.4,21.1,00.0,31.3,24.2,14.8,0000.0,0010.03,0006.39,0006.05
2023-01-28 21:38:00,,0817.6,4.98,0.00,22.4,21.0,00.0,31.3,24.1,14.8,0000.0,0010.06,0006.40,0006.06
2023-01-28 21:39:00,,0817.6,4.98,0.00,22.4,20.9,00.0,31.3,24.1,14.8,0000.0,0010.12,0006.44,0006.09
2023-01-28 21:40:00,,0817.6,5.03,0.00,22.4,20.8,00.0,31.3,24.0,14.9,0000.0,0010.16,0006.46,0006.10
2023-01-28 21:41:00,,0817.7,5.00,0.00,22.3,20.8,00.0,31.3,24.0,14.9,0000.0,0010.19,0006.48,0006.10
2023-01-28 21:42:00,,0817.7,5.01,0.00,22.3,20.7,00.0,31.2,24.0,14.9,0000.0,0010.34,0006.48,0006.11
2023-01-28 21:43:00,,0817.7,4.98,0.00,22.3,20.6,00.0,31.2,24.0,15.0,0000.0,0010.87,0006.51,0006.13
2023-01-28 21:44:00,,0817.8,5.00,0.00,22.3,20.6,00.0,31.2,23.9,15.0,0000.0,0010.26,0006.51,0006.14
2023-01-28 21:45:00,,0817.7,4.97,0.00,22.2,20.5,00.0,31.2,23.9,15.0,0000.0,0010.12,0006.49,0006.15
2023-01-28 21:46:00,,0817.7,5.01,0.00,22.2,20.4,00.0,31.2,23.9,15.0,0000.0,0010.11,0006.50,0006.17
2023-01-28 21:47:00,,0817.8,5.00,0.00,22.2,20.6,00.0,31.2,23.9,14.9,0000.0,0009.38,0006.52,0006.20
2023-01-28 21:48:00,,0817.9,5.01,0.00,22.3,21.6,00.0,31.1,24.2,14.8,0000.0,0009.51,0006.56,0006.25
2023-01-28 21:49:00,,0817.9,4.99,0.00,22.4,22.6,00.0,31.1,24.4,14.7,0000.0,0009.46,0006.56,0006.28
2023-01-28 21:50:00,,0818.0,4.99,0.00,22.5,22.7,00.0,31.2,24.5,14.6,0000.0,0009.38,0006.56,0006.29
2023-01-28 21:51:00,,0818.0,5.00,0.00,22.5,22.2,00.0,31.2,24.4,14.6,0000.0,0009.37,0006.59,0006.32
2023-01-28 21:52:00,,0818.0,4.98,0.00,22.5,21.8,00.0,31.3,24.3,14.6,0000.0,0009.30,0006.59,0006.35
2023-01-28 21:53:00,,0818.0,5.00,0.00,22.4,21.5,00.0,31.3,24.2,14.6,0000.0,0009.12,0006.61,0006.38
2023-01-28 21:54:00,,0818.0,4.98,0.00,22.4,21.3,00.0,31.3,24.1,14.6,0000.0,0008.56,0006.60,0006.40
2023-01-28 21:55:00,,0818.0,4.99,0.00,22.4,21.1,00.0,31.3,24.1,14.7,0000.0,0008.51,0006.61,0006.42
2023-01-28 21:56:00,,0818.0,4.98,0.00,22.4,20.9,00.0,31.3,24.0,14.7,0000.0,0008.54,0006.63,0006.44
2023-01-28 21:57:00,,0818.0,5.01,0.00,22.3,20.8,00.0,31.3,24.0,14.7,0000.0,0008.55,0006.63,0006.45
2023-01-28 21:58:00,,0818.0,5.01,0.00,22.3,20.7,00.0,31.3,24.0,14.7,0000.0,0008.52,0006.62,0006.45
2023-01-28 21:59:00,,0818.0,5.03,0.00,22.3,20.6,00.0,31.2,23.9,14.9,0000.0,0008.37,0006.62,0006.46
